| time (UTC) | temp F | wind direction | speed knots | gust knots | rain 1hr in | rain 24hr in | rain mn in | humidity % | barometer mb |
| 20260507073932 | 64 | 140 | 1.7 | 5.2 | 0.00 | 0.00 | 0.00 | 32 | 1013.8 |
| 20260507070935 | 63 | 318 | 1.7 | 3.5 | 0.00 | 0.00 | 0.00 | 34 | 1013.7 |
| 20260507063937 | 66 | 286 | 2.6 | 4.3 | 0.00 | 0.00 | 0.00 | 31 | 1013.7 |
| 20260507060930 | 69 | 284 | 2.6 | 6.1 | 0.00 | 0.00 | 0.00 | 28 | 1013.6 |
| 20260507053935 | 68 | 275 | 2.6 | 4.3 | 0.00 | 0.00 | 0.00 | 28 | 1013.5 |
| 20260507050937 | 68 | 291 | 4.3 | 6.1 | 0.00 | 0.00 | 0.00 | 28 | 1013.3 |
| 20260507043940 | 68 | 201 | 1.7 | 6.1 | 0.00 | 0.00 | 0.00 | 27 | 1013.3 |
| 20260507040932 | 70 | 302 | 3.5 | 4.3 | 0.00 | 0.00 | 0.00 | 27 | 1013.3 |
| 20260507033938 | 72 | 254 | 4.3 | 5.2 | 0.00 | 0.00 | 0.00 | 26 | 1013.1 |
| 20260507030936 | 74 | 284 | 3.5 | 8.7 | 0.00 | 0.00 | 0.00 | 25 | 1012.7 |
| 20260507024006 | 76 | 257 | 5.2 | 8.7 | 0.00 | 0.00 | 0.00 | 24 | 1012.2 |
| 20260507020941 | 77 | 268 | 7.0 | 11.3 | 0.00 | 0.00 | 0.00 | 23 | 1012.2 |
| 20260507013935 | 79 | 267 | 6.1 | 8.7 | 0.00 | 0.00 | 0.00 | 22 | 1011.0 |
| 20260507004007 | 80 | 263 | 8.7 | 11.3 | 0.00 | 0.00 | 0.00 | 22 | 1010.9 |
| 20260507000959 | 80 | 305 | 6.1 | 10.4 | 0.00 | 0.00 | 0.00 | 22 | 1011.0 |
| 20260506234007 | 80 | 319 | 2.6 | 13.9 | 0.00 | 0.00 | 0.00 | 22 | 1010.9 |
| 20260506230929 | 80 | 218 | 3.5 | 10.4 | 0.00 | 0.00 | 0.00 | 22 | 1011.3 |
| 20260506223930 | 80 | 121 | 6.1 | 14.8 | 0.00 | 0.00 | 0.00 | 22 | 1011.4 |
| 20260506220958 | 79 | 219 | 6.1 | 16.5 | 0.00 | 0.00 | 0.00 | 23 | 1011.9 |
| 20260506213949 | 79 | 220 | 7.8 | 13.9 | 0.00 | 0.00 | 0.00 | 22 | 1012.3 |
| 20260506210944 | 78 | 11 | 6.1 | 15.6 | 0.00 | 0.00 | 0.00 | 23 | 1012.9 |
| 20260506203932 | 77 | 208 | 1.7 | 13.0 | 0.00 | 0.00 | 0.00 | 24 | 1013.0 |
| 20260506200947 | 77 | 294 | 7.8 | 12.2 | 0.00 | 0.00 | 0.00 | 24 | 1013.5 |
| 20260506193940 | 75 | 227 | 4.3 | 9.6 | 0.00 | 0.00 | 0.00 | 26 | 1013.7 |
| 20260506190949 | 75 | 181 | 5.2 | 9.6 | 0.00 | 0.00 | 0.00 | 28 | 1014.1 |
| 20260506183932 | 73 | 179 | 7.8 | 10.4 | 0.00 | 0.00 | 0.00 | 28 | 1014.5 |
| 20260506180940 | 72 | 117 | 2.6 | 10.4 | 0.00 | 0.00 | 0.00 | 29 | 1014.8 |
| 20260506173943 | 71 | 129 | 2.6 | 10.4 | 0.00 | 0.00 | 0.00 | 30 | 1014.8 |
| 20260506170946 | 70 | 205 | 2.6 | 6.1 | 0.00 | 0.00 | 0.00 | 34 | 1014.8 |
| 20260506163935 | 68 | 160 | 3.5 | 7.8 | 0.00 | 0.00 | 0.00 | 34 | 1014.8 |
| 20260506160953 | 67 | 49 | 0.9 | 2.6 | 0.00 | 0.00 | 0.00 | 35 | 1014.6 |
| 20260506153958 | 66 | 33 | 1.7 | 4.3 | 0.00 | 0.00 | 0.00 | 36 | 1014.6 |
| 20260506150937 | 64 | 76 | 3.5 | 7.8 | 0.00 | 0.00 | 0.00 | 39 | 1014.6 |
| 20260506143941 | 62 | 72 | 4.3 | 7.0 | 0.00 | 0.00 | 0.00 | 39 | 1014.5 |
| 20260506140932 | 58 | 38 | 4.3 | 8.7 | 0.00 | 0.00 | 0.00 | 44 | 1014.1 |
| 20260506133936 | 54 | 15 | 2.6 | 4.3 | 0.00 | 0.00 | 0.00 | 46 | 1013.8 |
| 20260506130939 | 49 | 60 | 0.0 | 0.0 | 0.00 | 0.00 | 0.00 | 51 | 1013.4 |
| 20260506123934 | 50 | 347 | 2.6 | 4.3 | 0.00 | 0.00 | 0.00 | 51 | 1012.9 |
| 20260506120934 | 50 | 342 | 4.3 | 7.8 | 0.00 | 0.00 | 0.00 | 51 | 1012.9 |
| 20260506114001 | 49 | 331 | 4.3 | 6.1 | 0.00 | 0.00 | 0.00 | 50 | 1012.9 |
| 20260506110947 | 49 | 65 | 2.6 | 3.5 | 0.00 | 0.00 | 0.00 | 50 | 1012.7 |
| 20260506103941 | 54 | 300 | 1.7 | 3.5 | 0.00 | 0.00 | 0.00 | 47 | 1012.5 |
| 20260506100941 | 51 | 326 | 2.6 | 3.5 | 0.00 | 0.00 | 0.00 | 49 | 1012.2 |
| 20260506094004 | 50 | 40 | 0.0 | 4.3 | 0.00 | 0.00 | 0.00 | 48 | 1012.4 |
| 20260506090941 | 52 | 73 | 0.0 | 3.5 | 0.00 | 0.00 | 0.00 | 46 | 1012.1 |
| 20260506083943 | 53 | 316 | 3.5 | 5.2 | 0.00 | 0.00 | 0.00 | 46 | 1012.1 |
| 20260506080947 | 53 | 317 | 3.5 | 4.3 | 0.00 | 0.00 | 0.00 | 46 | 1012.3 |